<?xml version="1.0" encoding="UTF-8" standalone="no" ?>
<gpx xmlns="http://www.topografix.com/GPX/1/1" xmlns:xsi="http://www.w3.org/2001/XMLSchema-instance" xsi:schemaLocation="http://www.topografix.com/GPX/1/1 http://www.topografix.com/GPX/1/1/gpx.xsd" version="1.1" creator="VisuGPX - https://www.visugpx.com">
  <metadata>
    <name>Festieux</name>
    <desc><![CDATA[BRIC - Belle Rencontre Inter Club
Le dimanche 3 avril 2022
Club organisateur : ARPAL]]></desc>
  </metadata>
  <trk>
    <name><![CDATA[matin]]></name>
    <extensions>
      <line xmlns="http://www.topografix.com/GPX/gpx_style/0/2">
        <color>0000FF</color>
        <width>4</width>
      </line>
    </extensions>
    <trkseg>
      <trkpt lat="49.52025" lon="3.75411">
        <ele>110.2</ele>
        <time>2022-04-03T07:34:05Z</time>
      </trkpt>
      <trkpt lat="49.5206" lon="3.75662">
        <ele>108.7</ele>
      </trkpt>
      <trkpt lat="49.52132" lon="3.75868">
        <ele>107</ele>
      </trkpt>
      <trkpt lat="49.52169" lon="3.75964">
        <ele>164.52</ele>
        <time>2022-04-03T07:34:30Z</time>
      </trkpt>
      <trkpt lat="49.52193" lon="3.7606">
        <ele>164.52</ele>
        <time>2022-04-03T07:35:22Z</time>
      </trkpt>
      <trkpt lat="49.5222" lon="3.76148">
        <ele>164.52</ele>
        <time>2022-04-03T07:36:13Z</time>
      </trkpt>
      <trkpt lat="49.52234" lon="3.76205">
        <ele>164.52</ele>
        <time>2022-04-03T07:36:47Z</time>
      </trkpt>
      <trkpt lat="49.52247" lon="3.76295">
        <ele>164.52</ele>
        <time>2022-04-03T07:37:39Z</time>
      </trkpt>
      <trkpt lat="49.52261" lon="3.76389">
        <ele>165</ele>
        <time>2022-04-03T07:38:34Z</time>
      </trkpt>
      <trkpt lat="49.5227" lon="3.76459">
        <ele>165.96</ele>
        <time>2022-04-03T07:39:14Z</time>
      </trkpt>
      <trkpt lat="49.52282" lon="3.7653">
        <ele>167.41</ele>
        <time>2022-04-03T07:39:54Z</time>
      </trkpt>
      <trkpt lat="49.52296" lon="3.76604">
        <ele>169.33</ele>
        <time>2022-04-03T07:40:35Z</time>
      </trkpt>
      <trkpt lat="49.52312" lon="3.76663">
        <ele>171.73</ele>
        <time>2022-04-03T07:41:12Z</time>
      </trkpt>
      <trkpt lat="49.52328" lon="3.7672">
        <ele>174.14</ele>
        <time>2022-04-03T07:41:45Z</time>
      </trkpt>
      <trkpt lat="49.52347" lon="3.76792">
        <ele>177.5</ele>
        <time>2022-04-03T07:42:30Z</time>
      </trkpt>
      <trkpt lat="49.52369" lon="3.76865">
        <ele>183.75</ele>
        <time>2022-04-03T07:43:20Z</time>
      </trkpt>
      <trkpt lat="49.52383" lon="3.76906">
        <ele>188.08</ele>
        <time>2022-04-03T07:43:53Z</time>
      </trkpt>
      <trkpt lat="49.52407" lon="3.76976">
        <ele>194.8</ele>
        <time>2022-04-03T07:44:45Z</time>
      </trkpt>
      <trkpt lat="49.52427" lon="3.77032">
        <ele>200.09</ele>
        <time>2022-04-03T07:45:35Z</time>
      </trkpt>
      <trkpt lat="49.52449" lon="3.77076">
        <ele>205.38</ele>
        <time>2022-04-03T07:46:13Z</time>
      </trkpt>
      <trkpt lat="49.52469" lon="3.77112">
        <ele>211.63</ele>
        <time>2022-04-03T07:46:53Z</time>
      </trkpt>
      <trkpt lat="49.52498" lon="3.77163">
        <ele>219.8</ele>
        <time>2022-04-03T07:47:43Z</time>
      </trkpt>
      <trkpt lat="49.52526" lon="3.77221">
        <ele>229.41</ele>
        <time>2022-04-03T07:48:44Z</time>
      </trkpt>
      <trkpt lat="49.52534" lon="3.77269">
        <ele>234.7</ele>
        <time>2022-04-03T07:49:17Z</time>
      </trkpt>
      <trkpt lat="49.52552" lon="3.77334">
        <ele>243.83</ele>
        <time>2022-04-03T07:50:10Z</time>
      </trkpt>
      <trkpt lat="49.52574" lon="3.77397">
        <ele>247.2</ele>
        <time>2022-04-03T07:50:54Z</time>
      </trkpt>
      <trkpt lat="49.52602" lon="3.77461">
        <ele>248.16</ele>
        <time>2022-04-03T07:51:36Z</time>
      </trkpt>
      <trkpt lat="49.52611" lon="3.77482">
        <ele>248.64</ele>
        <time>2022-04-03T07:52:52Z</time>
      </trkpt>
      <trkpt lat="49.52632" lon="3.77519">
        <ele>248.64</ele>
        <time>2022-04-03T07:54:16Z</time>
      </trkpt>
      <trkpt lat="49.52649" lon="3.77558">
        <ele>249.12</ele>
        <time>2022-04-03T07:55:06Z</time>
      </trkpt>
      <trkpt lat="49.52652" lon="3.77603">
        <ele>249.12</ele>
        <time>2022-04-03T07:55:48Z</time>
      </trkpt>
      <trkpt lat="49.52658" lon="3.77657">
        <ele>249.6</ele>
        <time>2022-04-03T07:57:00Z</time>
      </trkpt>
      <trkpt lat="49.52666" lon="3.77737">
        <ele>250.56</ele>
        <time>2022-04-03T07:57:49Z</time>
      </trkpt>
      <trkpt lat="49.52672" lon="3.77797">
        <ele>250.56</ele>
        <time>2022-04-03T07:58:20Z</time>
      </trkpt>
      <trkpt lat="49.52685" lon="3.77913">
        <ele>250.56</ele>
        <time>2022-04-03T07:59:16Z</time>
      </trkpt>
      <trkpt lat="49.52694" lon="3.78016">
        <ele>249.6</ele>
        <time>2022-04-03T08:00:12Z</time>
      </trkpt>
      <trkpt lat="49.52703" lon="3.78047">
        <ele>249.12</ele>
        <time>2022-04-03T08:00:38Z</time>
      </trkpt>
      <trkpt lat="49.52736" lon="3.78018">
        <ele>247.2</ele>
        <time>2022-04-03T08:01:19Z</time>
      </trkpt>
      <trkpt lat="49.5276" lon="3.78003">
        <ele>247.2</ele>
        <time>2022-04-03T08:01:43Z</time>
      </trkpt>
      <trkpt lat="49.52828" lon="3.77997">
        <ele>247.68</ele>
        <time>2022-04-03T08:02:38Z</time>
      </trkpt>
      <trkpt lat="49.52885" lon="3.77995">
        <ele>248.64</ele>
        <time>2022-04-03T08:03:23Z</time>
      </trkpt>
      <trkpt lat="49.52953" lon="3.77999">
        <ele>250.56</ele>
        <time>2022-04-03T08:04:16Z</time>
      </trkpt>
      <trkpt lat="49.53011" lon="3.78022">
        <ele>251.52</ele>
        <time>2022-04-03T08:05:05Z</time>
      </trkpt>
      <trkpt lat="49.53056" lon="3.78062">
        <ele>252.48</ele>
        <time>2022-04-03T08:05:48Z</time>
      </trkpt>
      <trkpt lat="49.53126" lon="3.78122">
        <ele>252.96</ele>
        <time>2022-04-03T08:06:51Z</time>
      </trkpt>
      <trkpt lat="49.53175" lon="3.78175">
        <ele>252</ele>
        <time>2022-04-03T08:07:39Z</time>
      </trkpt>
      <trkpt lat="49.53234" lon="3.78226">
        <ele>253.44</ele>
        <time>2022-04-03T08:08:37Z</time>
      </trkpt>
      <trkpt lat="49.53284" lon="3.78274">
        <ele>251.52</ele>
        <time>2022-04-03T08:09:23Z</time>
      </trkpt>
      <trkpt lat="49.53339" lon="3.78339">
        <ele>252</ele>
        <time>2022-04-03T08:10:23Z</time>
      </trkpt>
      <trkpt lat="49.53405" lon="3.78427">
        <ele>254.41</ele>
        <time>2022-04-03T08:11:33Z</time>
      </trkpt>
      <trkpt lat="49.53435" lon="3.78495">
        <ele>252.48</ele>
        <time>2022-04-03T08:12:13Z</time>
      </trkpt>
      <trkpt lat="49.53482" lon="3.78568">
        <ele>252.48</ele>
        <time>2022-04-03T08:13:08Z</time>
      </trkpt>
      <trkpt lat="49.53512" lon="3.78607">
        <ele>251.52</ele>
        <time>2022-04-03T08:13:42Z</time>
      </trkpt>
      <trkpt lat="49.53519" lon="3.78627">
        <ele>250.56</ele>
        <time>2022-04-03T08:13:54Z</time>
      </trkpt>
      <trkpt lat="49.53559" lon="3.7863">
        <ele>248.64</ele>
        <time>2022-04-03T08:14:28Z</time>
      </trkpt>
      <trkpt lat="49.536" lon="3.78666">
        <ele>246.23</ele>
        <time>2022-04-03T08:15:05Z</time>
      </trkpt>
      <trkpt lat="49.53642" lon="3.7864">
        <ele>237.58</ele>
        <time>2022-04-03T08:15:57Z</time>
      </trkpt>
      <trkpt lat="49.53669" lon="3.78601">
        <ele>230.85</ele>
        <time>2022-04-03T08:16:42Z</time>
      </trkpt>
      <trkpt lat="49.53701" lon="3.78552">
        <ele>221.72</ele>
        <time>2022-04-03T08:17:46Z</time>
      </trkpt>
      <trkpt lat="49.53747" lon="3.7852">
        <ele>212.59</ele>
        <time>2022-04-03T08:18:37Z</time>
      </trkpt>
      <trkpt lat="49.53793" lon="3.78527">
        <ele>205.86</ele>
        <time>2022-04-03T08:19:21Z</time>
      </trkpt>
      <trkpt lat="49.53839" lon="3.78562">
        <ele>196.73</ele>
        <time>2022-04-03T08:20:13Z</time>
      </trkpt>
      <trkpt lat="49.53869" lon="3.78614">
        <ele>189.52</ele>
        <time>2022-04-03T08:20:59Z</time>
      </trkpt>
      <trkpt lat="49.53888" lon="3.78645">
        <ele>187.59</ele>
        <time>2022-04-03T08:21:29Z</time>
      </trkpt>
      <trkpt lat="49.53944" lon="3.78643">
        <ele>181.83</ele>
        <time>2022-04-03T08:22:17Z</time>
      </trkpt>
      <trkpt lat="49.53999" lon="3.7864">
        <ele>174.14</ele>
        <time>2022-04-03T08:23:05Z</time>
      </trkpt>
      <trkpt lat="49.54051" lon="3.78642">
        <ele>166.45</ele>
        <time>2022-04-03T08:23:52Z</time>
      </trkpt>
      <trkpt lat="49.54067" lon="3.78653">
        <ele>165.48</ele>
        <time>2022-04-03T08:25:26Z</time>
      </trkpt>
      <trkpt lat="49.54099" lon="3.78698">
        <ele>164.52</ele>
        <time>2022-04-03T08:26:05Z</time>
      </trkpt>
      <trkpt lat="49.54106" lon="3.78719">
        <ele>164.04</ele>
        <time>2022-04-03T08:26:53Z</time>
      </trkpt>
      <trkpt lat="49.54096" lon="3.78718">
        <ele>163.56</ele>
        <time>2022-04-03T08:27:33Z</time>
      </trkpt>
      <trkpt lat="49.54072" lon="3.78726">
        <ele>163.56</ele>
        <time>2022-04-03T08:28:14Z</time>
      </trkpt>
      <trkpt lat="49.54075" lon="3.78726">
        <ele>164.04</ele>
        <time>2022-04-03T08:28:48Z</time>
      </trkpt>
      <trkpt lat="49.54084" lon="3.7871">
        <ele>164.52</ele>
        <time>2022-04-03T08:29:07Z</time>
      </trkpt>
      <trkpt lat="49.54067" lon="3.78717">
        <ele>164.04</ele>
        <time>2022-04-03T08:29:39Z</time>
      </trkpt>
      <trkpt lat="49.54059" lon="3.78726">
        <ele>164.04</ele>
        <time>2022-04-03T08:30:39Z</time>
      </trkpt>
      <trkpt lat="49.54053" lon="3.78864">
        <ele>164.52</ele>
        <time>2022-04-03T08:32:14Z</time>
      </trkpt>
      <trkpt lat="49.54073" lon="3.78933">
        <ele>163.08</ele>
        <time>2022-04-03T08:32:48Z</time>
      </trkpt>
      <trkpt lat="49.54075" lon="3.79">
        <ele>160.68</ele>
        <time>2022-04-03T08:33:27Z</time>
      </trkpt>
      <trkpt lat="49.54093" lon="3.79083">
        <ele>158.27</ele>
        <time>2022-04-03T08:34:16Z</time>
      </trkpt>
      <trkpt lat="49.54104" lon="3.79169">
        <ele>156.35</ele>
        <time>2022-04-03T08:35:03Z</time>
      </trkpt>
      <trkpt lat="49.54102" lon="3.79292">
        <ele>152.99</ele>
        <time>2022-04-03T08:36:04Z</time>
      </trkpt>
      <trkpt lat="49.54101" lon="3.7942">
        <ele>150.1</ele>
        <time>2022-04-03T08:37:09Z</time>
      </trkpt>
      <trkpt lat="49.54099" lon="3.79569">
        <ele>148.66</ele>
        <time>2022-04-03T08:38:23Z</time>
      </trkpt>
      <trkpt lat="49.54053" lon="3.79586">
        <ele>150.58</ele>
        <time>2022-04-03T08:39:05Z</time>
      </trkpt>
      <trkpt lat="49.5405" lon="3.79706">
        <ele>149.14</ele>
        <time>2022-04-03T08:40:13Z</time>
      </trkpt>
      <trkpt lat="49.53996" lon="3.79741">
        <ele>150.1</ele>
        <time>2022-04-03T08:41:24Z</time>
      </trkpt>
      <trkpt lat="49.53952" lon="3.79765">
        <ele>149.62</ele>
        <time>2022-04-03T08:42:01Z</time>
      </trkpt>
      <trkpt lat="49.53862" lon="3.7982">
        <ele>150.1</ele>
        <time>2022-04-03T08:43:16Z</time>
      </trkpt>
      <trkpt lat="49.53801" lon="3.79854">
        <ele>150.58</ele>
        <time>2022-04-03T08:44:08Z</time>
      </trkpt>
      <trkpt lat="49.53757" lon="3.79886">
        <ele>151.06</ele>
        <time>2022-04-03T08:44:44Z</time>
      </trkpt>
      <trkpt lat="49.53705" lon="3.79918">
        <ele>151.54</ele>
        <time>2022-04-03T08:45:42Z</time>
      </trkpt>
      <trkpt lat="49.5366" lon="3.7987">
        <ele>152.99</ele>
        <time>2022-04-03T08:46:31Z</time>
      </trkpt>
      <trkpt lat="49.53618" lon="3.79851">
        <ele>153.95</ele>
        <time>2022-04-03T08:47:10Z</time>
      </trkpt>
      <trkpt lat="49.5358" lon="3.79843">
        <ele>154.91</ele>
        <time>2022-04-03T08:47:40Z</time>
      </trkpt>
      <trkpt lat="49.5351" lon="3.79828">
        <ele>155.87</ele>
        <time>2022-04-03T08:48:33Z</time>
      </trkpt>
      <trkpt lat="49.53447" lon="3.79817">
        <ele>157.31</ele>
        <time>2022-04-03T08:49:20Z</time>
      </trkpt>
      <trkpt lat="49.53416" lon="3.79817">
        <ele>158.27</ele>
        <time>2022-04-03T08:49:47Z</time>
      </trkpt>
      <trkpt lat="49.53345" lon="3.79797">
        <ele>159.72</ele>
        <time>2022-04-03T08:50:45Z</time>
      </trkpt>
      <trkpt lat="49.53281" lon="3.79784">
        <ele>159.72</ele>
        <time>2022-04-03T08:51:42Z</time>
      </trkpt>
      <trkpt lat="49.53265" lon="3.79809">
        <ele>159.72</ele>
        <time>2022-04-03T08:51:58Z</time>
      </trkpt>
      <trkpt lat="49.53264" lon="3.7983">
        <ele>159.24</ele>
        <time>2022-04-03T08:53:02Z</time>
      </trkpt>
      <trkpt lat="49.53263" lon="3.79832">
        <ele>160.2</ele>
        <time>2022-04-03T08:59:07Z</time>
      </trkpt>
      <trkpt lat="49.53249" lon="3.79811">
        <ele>160.2</ele>
        <time>2022-04-03T09:00:07Z</time>
      </trkpt>
      <trkpt lat="49.53231" lon="3.7979">
        <ele>159.72</ele>
        <time>2022-04-03T09:00:33Z</time>
      </trkpt>
      <trkpt lat="49.53195" lon="3.79717">
        <ele>159.24</ele>
        <time>2022-04-03T09:01:21Z</time>
      </trkpt>
      <trkpt lat="49.5317" lon="3.79625">
        <ele>159.24</ele>
        <time>2022-04-03T09:02:19Z</time>
      </trkpt>
      <trkpt lat="49.53136" lon="3.79564">
        <ele>160.2</ele>
        <time>2022-04-03T09:02:57Z</time>
      </trkpt>
      <trkpt lat="49.53121" lon="3.79465">
        <ele>161.16</ele>
        <time>2022-04-03T09:03:51Z</time>
      </trkpt>
      <trkpt lat="49.53109" lon="3.79352">
        <ele>162.6</ele>
        <time>2022-04-03T09:04:50Z</time>
      </trkpt>
      <trkpt lat="49.531" lon="3.79287">
        <ele>163.56</ele>
        <time>2022-04-03T09:05:23Z</time>
      </trkpt>
      <trkpt lat="49.53088" lon="3.79189">
        <ele>164.52</ele>
        <time>2022-04-03T09:06:20Z</time>
      </trkpt>
      <trkpt lat="49.53074" lon="3.79082">
        <ele>166.93</ele>
        <time>2022-04-03T09:07:15Z</time>
      </trkpt>
      <trkpt lat="49.53067" lon="3.78992">
        <ele>168.37</ele>
        <time>2022-04-03T09:08:07Z</time>
      </trkpt>
      <trkpt lat="49.5306" lon="3.78934">
        <ele>169.81</ele>
        <time>2022-04-03T09:08:35Z</time>
      </trkpt>
      <trkpt lat="49.5303" lon="3.78853">
        <ele>172.69</ele>
        <time>2022-04-03T09:09:29Z</time>
      </trkpt>
      <trkpt lat="49.52988" lon="3.7877">
        <ele>174.14</ele>
        <time>2022-04-03T09:10:25Z</time>
      </trkpt>
      <trkpt lat="49.5294" lon="3.78724">
        <ele>177.02</ele>
        <time>2022-04-03T09:11:14Z</time>
      </trkpt>
      <trkpt lat="49.52902" lon="3.78714">
        <ele>180.87</ele>
        <time>2022-04-03T09:12:05Z</time>
      </trkpt>
      <trkpt lat="49.5284" lon="3.78703">
        <ele>185.67</ele>
        <time>2022-04-03T09:13:05Z</time>
      </trkpt>
      <trkpt lat="49.52803" lon="3.78644">
        <ele>190.96</ele>
        <time>2022-04-03T09:13:52Z</time>
      </trkpt>
      <trkpt lat="49.52754" lon="3.78549">
        <ele>196.25</ele>
        <time>2022-04-03T09:15:03Z</time>
      </trkpt>
      <trkpt lat="49.52752" lon="3.78481">
        <ele>199.13</ele>
        <time>2022-04-03T09:15:45Z</time>
      </trkpt>
      <trkpt lat="49.52733" lon="3.78421">
        <ele>202.98</ele>
        <time>2022-04-03T09:16:25Z</time>
      </trkpt>
      <trkpt lat="49.52693" lon="3.78374">
        <ele>207.3</ele>
        <time>2022-04-03T09:17:15Z</time>
      </trkpt>
      <trkpt lat="49.52649" lon="3.78312">
        <ele>170.1</ele>
        <time>2022-04-03T09:18:06Z</time>
      </trkpt>
      <trkpt lat="49.52662" lon="3.78228">
        <ele>223.16</ele>
        <time>2022-04-03T09:19:15Z</time>
      </trkpt>
      <trkpt lat="49.52674" lon="3.78188">
        <ele>229.41</ele>
        <time>2022-04-03T09:19:51Z</time>
      </trkpt>
      <trkpt lat="49.52702" lon="3.78125">
        <ele>239.02</ele>
        <time>2022-04-03T09:20:51Z</time>
      </trkpt>
      <trkpt lat="49.52704" lon="3.78077">
        <ele>246.72</ele>
        <time>2022-04-03T09:21:30Z</time>
      </trkpt>
      <trkpt lat="49.52687" lon="3.78024">
        <ele>249.6</ele>
        <time>2022-04-03T09:24:48Z</time>
      </trkpt>
      <trkpt lat="49.5268" lon="3.77953">
        <ele>250.08</ele>
        <time>2022-04-03T09:25:31Z</time>
      </trkpt>
      <trkpt lat="49.52665" lon="3.77831">
        <ele>250.56</ele>
        <time>2022-04-03T09:26:40Z</time>
      </trkpt>
      <trkpt lat="49.52654" lon="3.7773">
        <ele>250.56</ele>
        <time>2022-04-03T09:27:38Z</time>
      </trkpt>
      <trkpt lat="49.52654" lon="3.77662">
        <ele>249.12</ele>
        <time>2022-04-03T09:28:23Z</time>
      </trkpt>
      <trkpt lat="49.52646" lon="3.77575">
        <ele>248.64</ele>
        <time>2022-04-03T09:29:33Z</time>
      </trkpt>
      <trkpt lat="49.52631" lon="3.77539">
        <ele>248.64</ele>
        <time>2022-04-03T09:30:02Z</time>
      </trkpt>
      <trkpt lat="49.52599" lon="3.77598">
        <ele>248.16</ele>
        <time>2022-04-03T09:30:46Z</time>
      </trkpt>
      <trkpt lat="49.52577" lon="3.77654">
        <ele>249.12</ele>
        <time>2022-04-03T09:31:20Z</time>
      </trkpt>
      <trkpt lat="49.52532" lon="3.77709">
        <ele>251.04</ele>
        <time>2022-04-03T09:32:05Z</time>
      </trkpt>
      <trkpt lat="49.52483" lon="3.77735">
        <ele>252.48</ele>
        <time>2022-04-03T09:32:52Z</time>
      </trkpt>
      <trkpt lat="49.52446" lon="3.77754">
        <ele>253.44</ele>
        <time>2022-04-03T09:33:29Z</time>
      </trkpt>
      <trkpt lat="49.52378" lon="3.77765">
        <ele>253.93</ele>
        <time>2022-04-03T09:34:22Z</time>
      </trkpt>
      <trkpt lat="49.52326" lon="3.77784">
        <ele>254.41</ele>
        <time>2022-04-03T09:35:06Z</time>
      </trkpt>
      <trkpt lat="49.52284" lon="3.77805">
        <ele>253.93</ele>
        <time>2022-04-03T09:35:43Z</time>
      </trkpt>
      <trkpt lat="49.52216" lon="3.7781">
        <ele>254.41</ele>
        <time>2022-04-03T09:36:36Z</time>
      </trkpt>
      <trkpt lat="49.52145" lon="3.77805">
        <ele>253.44</ele>
        <time>2022-04-03T09:37:39Z</time>
      </trkpt>
      <trkpt lat="49.52106" lon="3.77797">
        <ele>252.48</ele>
        <time>2022-04-03T09:38:08Z</time>
      </trkpt>
      <trkpt lat="49.52055" lon="3.77772">
        <ele>252</ele>
        <time>2022-04-03T09:38:55Z</time>
      </trkpt>
      <trkpt lat="49.51971" lon="3.777">
        <ele>250.56</ele>
        <time>2022-04-03T09:40:17Z</time>
      </trkpt>
      <trkpt lat="49.51926" lon="3.7766">
        <ele>249.6</ele>
        <time>2022-04-03T09:41:01Z</time>
      </trkpt>
      <trkpt lat="49.51918" lon="3.77649">
        <ele>249.6</ele>
        <time>2022-04-03T09:41:22Z</time>
      </trkpt>
      <trkpt lat="49.51859" lon="3.7764">
        <ele>249.6</ele>
        <time>2022-04-03T09:41:59Z</time>
      </trkpt>
      <trkpt lat="49.51815" lon="3.7768">
        <ele>250.08</ele>
        <time>2022-04-03T09:42:38Z</time>
      </trkpt>
      <trkpt lat="49.51788" lon="3.77696">
        <ele>251.04</ele>
        <time>2022-04-03T09:43:04Z</time>
      </trkpt>
      <trkpt lat="49.51757" lon="3.7767">
        <ele>251.52</ele>
        <time>2022-04-03T09:44:04Z</time>
      </trkpt>
      <trkpt lat="49.51735" lon="3.7759">
        <ele>251.52</ele>
        <time>2022-04-03T09:45:05Z</time>
      </trkpt>
      <trkpt lat="49.51727" lon="3.77565">
        <ele>250.56</ele>
        <time>2022-04-03T09:45:22Z</time>
      </trkpt>
      <trkpt lat="49.51711" lon="3.77495">
        <ele>249.6</ele>
        <time>2022-04-03T09:46:09Z</time>
      </trkpt>
      <trkpt lat="49.51681" lon="3.77414">
        <ele>249.6</ele>
        <time>2022-04-03T09:47:04Z</time>
      </trkpt>
      <trkpt lat="49.51647" lon="3.77354">
        <ele>250.56</ele>
        <time>2022-04-03T09:47:51Z</time>
      </trkpt>
      <trkpt lat="49.5163" lon="3.77306">
        <ele>251.04</ele>
        <time>2022-04-03T09:48:25Z</time>
      </trkpt>
      <trkpt lat="49.51586" lon="3.77249">
        <ele>251.04</ele>
        <time>2022-04-03T09:49:10Z</time>
      </trkpt>
      <trkpt lat="49.5156" lon="3.77192">
        <ele>252.96</ele>
        <time>2022-04-03T09:50:02Z</time>
      </trkpt>
      <trkpt lat="49.51528" lon="3.77149">
        <ele>253.93</ele>
        <time>2022-04-03T09:50:25Z</time>
      </trkpt>
      <trkpt lat="49.51514" lon="3.77108">
        <ele>193.9</ele>
      </trkpt>
      <trkpt lat="49.51522" lon="3.77052">
        <ele>250.08</ele>
        <time>2022-04-03T09:51:19Z</time>
      </trkpt>
      <trkpt lat="49.51517" lon="3.76977">
        <ele>188.7</ele>
      </trkpt>
      <trkpt lat="49.51557" lon="3.76915">
        <ele>187</ele>
        <time>2022-04-03T09:52:43Z</time>
      </trkpt>
      <trkpt lat="49.51599" lon="3.76856">
        <ele>247.68</ele>
        <time>2022-04-03T09:53:30Z</time>
      </trkpt>
      <trkpt lat="49.51632" lon="3.76773">
        <ele>249.12</ele>
        <time>2022-04-03T09:54:22Z</time>
      </trkpt>
      <trkpt lat="49.51637" lon="3.76666">
        <ele>247.68</ele>
        <time>2022-04-03T09:55:18Z</time>
      </trkpt>
      <trkpt lat="49.51628" lon="3.76634">
        <ele>247.68</ele>
        <time>2022-04-03T09:55:39Z</time>
      </trkpt>
      <trkpt lat="49.51586" lon="3.76539">
        <ele>246.72</ele>
        <time>2022-04-03T09:56:36Z</time>
      </trkpt>
      <trkpt lat="49.51548" lon="3.76474">
        <ele>244.79</ele>
        <time>2022-04-03T09:57:21Z</time>
      </trkpt>
      <trkpt lat="49.51517" lon="3.76423">
        <ele>244.79</ele>
        <time>2022-04-03T09:57:57Z</time>
      </trkpt>
      <trkpt lat="49.51545" lon="3.76389">
        <ele>240.95</ele>
        <time>2022-04-03T09:58:34Z</time>
      </trkpt>
      <trkpt lat="49.51581" lon="3.76407">
        <ele>235.18</ele>
        <time>2022-04-03T09:59:10Z</time>
      </trkpt>
      <trkpt lat="49.5162" lon="3.76395">
        <ele>229.41</ele>
        <time>2022-04-03T09:59:45Z</time>
      </trkpt>
      <trkpt lat="49.5166" lon="3.76363">
        <ele>225.57</ele>
        <time>2022-04-03T10:00:22Z</time>
      </trkpt>
      <trkpt lat="49.51689" lon="3.76348">
        <ele>223.64</ele>
        <time>2022-04-03T10:00:46Z</time>
      </trkpt>
      <trkpt lat="49.51744" lon="3.76305">
        <ele>215.47</ele>
        <time>2022-04-03T10:01:47Z</time>
      </trkpt>
      <trkpt lat="49.51776" lon="3.76284">
        <ele>210.67</ele>
        <time>2022-04-03T10:02:17Z</time>
      </trkpt>
      <trkpt lat="49.51807" lon="3.76287">
        <ele>205.38</ele>
        <time>2022-04-03T10:03:00Z</time>
      </trkpt>
      <trkpt lat="49.5184" lon="3.76293">
        <ele>199.13</ele>
        <time>2022-04-03T10:03:38Z</time>
      </trkpt>
      <trkpt lat="49.51866" lon="3.76291">
        <ele>196.73</ele>
        <time>2022-04-03T10:04:03Z</time>
      </trkpt>
      <trkpt lat="49.51904" lon="3.76257">
        <ele>193.36</ele>
        <time>2022-04-03T10:04:40Z</time>
      </trkpt>
      <trkpt lat="49.51927" lon="3.76223">
        <ele>191.44</ele>
        <time>2022-04-03T10:05:11Z</time>
      </trkpt>
      <trkpt lat="49.51979" lon="3.76179">
        <ele>188.08</ele>
        <time>2022-04-03T10:05:52Z</time>
      </trkpt>
      <trkpt lat="49.52005" lon="3.76159">
        <ele>183.75</ele>
        <time>2022-04-03T10:06:28Z</time>
      </trkpt>
      <trkpt lat="49.52055" lon="3.76145">
        <ele>177.02</ele>
        <time>2022-04-03T10:07:13Z</time>
      </trkpt>
      <trkpt lat="49.521" lon="3.76115">
        <ele>172.69</ele>
        <time>2022-04-03T10:07:56Z</time>
      </trkpt>
      <trkpt lat="49.52087" lon="3.76054">
        <ele>171.73</ele>
        <time>2022-04-03T10:08:26Z</time>
      </trkpt>
      <trkpt lat="49.52055" lon="3.75986">
        <ele>169.81</ele>
        <time>2022-04-03T10:09:15Z</time>
      </trkpt>
      <trkpt lat="49.52038" lon="3.75896">
        <ele>164.04</ele>
        <time>2022-04-03T10:10:09Z</time>
      </trkpt>
      <trkpt lat="49.52093" lon="3.75851">
        <ele>161.64</ele>
        <time>2022-04-03T10:10:56Z</time>
      </trkpt>
      <trkpt lat="49.52114" lon="3.75808">
        <ele>161.64</ele>
        <time>2022-04-03T10:11:37Z</time>
      </trkpt>
      <trkpt lat="49.5209" lon="3.75739">
        <ele>162.6</ele>
        <time>2022-04-03T10:12:19Z</time>
      </trkpt>
      <trkpt lat="49.52065" lon="3.75663">
        <ele>163.56</ele>
        <time>2022-04-03T10:13:05Z</time>
      </trkpt>
      <trkpt lat="49.52061" lon="3.75611">
        <ele>163.08</ele>
        <time>2022-04-03T10:13:33Z</time>
      </trkpt>
      <trkpt lat="49.52046" lon="3.7553">
        <ele>164.04</ele>
        <time>2022-04-03T10:14:18Z</time>
      </trkpt>
      <trkpt lat="49.52036" lon="3.75442">
        <ele>164.52</ele>
        <time>2022-04-03T10:15:12Z</time>
      </trkpt>
      <trkpt lat="49.52041" lon="3.75415">
        <ele>165.48</ele>
        <time>2022-04-03T10:15:29Z</time>
      </trkpt>
    </trkseg>
  </trk>
  <trk>
    <name><![CDATA[après midi]]></name>
    <extensions>
      <line xmlns="http://www.topografix.com/GPX/gpx_style/0/2">
        <color>ff8000</color>
        <width>4</width>
      </line>
    </extensions>
    <trkseg>
      <trkpt lat="49.52033" lon="3.75418">
        <ele>110</ele>
      </trkpt>
      <trkpt lat="49.52062" lon="3.7561">
        <ele>171.73</ele>
        <time>2022-04-03T11:48:37Z</time>
      </trkpt>
      <trkpt lat="49.52049" lon="3.75681">
        <ele>173.17</ele>
        <time>2022-04-03T11:49:19Z</time>
      </trkpt>
      <trkpt lat="49.52017" lon="3.75746">
        <ele>173.17</ele>
        <time>2022-04-03T11:50:00Z</time>
      </trkpt>
      <trkpt lat="49.52006" lon="3.75789">
        <ele>109.8</ele>
        <time>2022-04-03T11:50:31Z</time>
      </trkpt>
      <trkpt lat="49.51997" lon="3.75832">
        <ele>110.1</ele>
      </trkpt>
      <trkpt lat="49.52023" lon="3.75882">
        <ele>173.17</ele>
        <time>2022-04-03T11:51:20Z</time>
      </trkpt>
      <trkpt lat="49.52049" lon="3.75948">
        <ele>175.58</ele>
        <time>2022-04-03T11:52:03Z</time>
      </trkpt>
      <trkpt lat="49.52095" lon="3.76027">
        <ele>177.98</ele>
        <time>2022-04-03T11:52:58Z</time>
      </trkpt>
      <trkpt lat="49.52104" lon="3.76125">
        <ele>179.9</ele>
        <time>2022-04-03T11:53:44Z</time>
      </trkpt>
      <trkpt lat="49.52066" lon="3.76169">
        <ele>183.75</ele>
        <time>2022-04-03T11:54:28Z</time>
      </trkpt>
      <trkpt lat="49.5202" lon="3.76173">
        <ele>190.48</ele>
        <time>2022-04-03T11:55:24Z</time>
      </trkpt>
      <trkpt lat="49.5195" lon="3.7622">
        <ele>198.17</ele>
        <time>2022-04-03T11:56:32Z</time>
      </trkpt>
      <trkpt lat="49.51882" lon="3.76284">
        <ele>201.53</ele>
        <time>2022-04-03T11:57:40Z</time>
      </trkpt>
      <trkpt lat="49.51841" lon="3.76295">
        <ele>204.42</ele>
        <time>2022-04-03T11:58:20Z</time>
      </trkpt>
      <trkpt lat="49.51816" lon="3.763">
        <ele>212.11</ele>
        <time>2022-04-03T11:59:10Z</time>
      </trkpt>
      <trkpt lat="49.51773" lon="3.76301">
        <ele>220.76</ele>
        <time>2022-04-03T12:00:08Z</time>
      </trkpt>
      <trkpt lat="49.51705" lon="3.76337">
        <ele>228.45</ele>
        <time>2022-04-03T12:01:10Z</time>
      </trkpt>
      <trkpt lat="49.5163" lon="3.7639">
        <ele>235.18</ele>
        <time>2022-04-03T12:02:22Z</time>
      </trkpt>
      <trkpt lat="49.51576" lon="3.76406">
        <ele>242.39</ele>
        <time>2022-04-03T12:03:17Z</time>
      </trkpt>
      <trkpt lat="49.51528" lon="3.76399">
        <ele>248.64</ele>
        <time>2022-04-03T12:04:04Z</time>
      </trkpt>
      <trkpt lat="49.51526" lon="3.76424">
        <ele>251.04</ele>
        <time>2022-04-03T12:05:06Z</time>
      </trkpt>
      <trkpt lat="49.51563" lon="3.76481">
        <ele>250.56</ele>
        <time>2022-04-03T12:06:11Z</time>
      </trkpt>
      <trkpt lat="49.51586" lon="3.76524">
        <ele>252.96</ele>
        <time>2022-04-03T12:06:47Z</time>
      </trkpt>
      <trkpt lat="49.51615" lon="3.76575">
        <ele>253.93</ele>
        <time>2022-04-03T12:07:23Z</time>
      </trkpt>
      <trkpt lat="49.51626" lon="3.76608">
        <ele>253.93</ele>
        <time>2022-04-03T12:07:50Z</time>
      </trkpt>
      <trkpt lat="49.51643" lon="3.76643">
        <ele>253.93</ele>
        <time>2022-04-03T12:08:15Z</time>
      </trkpt>
      <trkpt lat="49.51647" lon="3.76707">
        <ele>255.37</ele>
        <time>2022-04-03T12:08:48Z</time>
      </trkpt>
      <trkpt lat="49.51622" lon="3.76799">
        <ele>188.2</ele>
        <time>2022-04-03T12:09:44Z</time>
      </trkpt>
      <trkpt lat="49.51567" lon="3.76891">
        <ele>188.4</ele>
        <time>2022-04-03T12:10:24Z</time>
      </trkpt>
      <trkpt lat="49.51512" lon="3.76977">
        <ele>189.3</ele>
        <time>2022-04-03T12:12:15Z</time>
      </trkpt>
      <trkpt lat="49.51511" lon="3.77063">
        <ele>192.5</ele>
        <time>2022-04-03T12:13:02Z</time>
      </trkpt>
      <trkpt lat="49.51514" lon="3.77134">
        <ele>194.8</ele>
        <time>2022-04-03T12:13:34Z</time>
      </trkpt>
      <trkpt lat="49.51574" lon="3.77228">
        <ele>191.9</ele>
        <time>2022-04-03T12:14:20Z</time>
      </trkpt>
      <trkpt lat="49.51627" lon="3.77316">
        <ele>190.3</ele>
        <time>2022-04-03T12:14:56Z</time>
      </trkpt>
      <trkpt lat="49.5168" lon="3.77423">
        <ele>190.3</ele>
        <time>2022-04-03T12:15:37Z</time>
      </trkpt>
      <trkpt lat="49.51713" lon="3.77509">
        <ele>189.9</ele>
      </trkpt>
      <trkpt lat="49.51721" lon="3.77559">
        <ele>191.1</ele>
        <time>2022-04-03T12:18:19Z</time>
      </trkpt>
      <trkpt lat="49.51759" lon="3.77663">
        <ele>257.29</ele>
        <time>2022-04-03T12:19:02Z</time>
      </trkpt>
      <trkpt lat="49.51768" lon="3.7773">
        <ele>257.29</ele>
        <time>2022-04-03T12:19:39Z</time>
      </trkpt>
      <trkpt lat="49.51797" lon="3.7782">
        <ele>257.77</ele>
        <time>2022-04-03T12:20:29Z</time>
      </trkpt>
      <trkpt lat="49.51825" lon="3.77937">
        <ele>254.89</ele>
        <time>2022-04-03T12:21:34Z</time>
      </trkpt>
      <trkpt lat="49.51774" lon="3.7802">
        <ele>256.33</ele>
        <time>2022-04-03T12:22:38Z</time>
      </trkpt>
      <trkpt lat="49.51747" lon="3.78057">
        <ele>257.29</ele>
        <time>2022-04-03T12:23:08Z</time>
      </trkpt>
      <trkpt lat="49.51684" lon="3.78136">
        <ele>192</ele>
        <time>2022-04-03T12:24:51Z</time>
      </trkpt>
      <trkpt lat="49.51664" lon="3.78118">
        <ele>259.69</ele>
        <time>2022-04-03T12:27:06Z</time>
      </trkpt>
      <trkpt lat="49.51599" lon="3.78117">
        <ele>260.17</ele>
        <time>2022-04-03T12:28:05Z</time>
      </trkpt>
      <trkpt lat="49.51564" lon="3.78123">
        <ele>261.14</ele>
        <time>2022-04-03T12:28:36Z</time>
      </trkpt>
      <trkpt lat="49.51508" lon="3.78163">
        <ele>261.14</ele>
        <time>2022-04-03T12:29:29Z</time>
      </trkpt>
      <trkpt lat="49.51472" lon="3.7823">
        <ele>257.29</ele>
        <time>2022-04-03T12:30:11Z</time>
      </trkpt>
      <trkpt lat="49.51466" lon="3.7829">
        <ele>182.8</ele>
      </trkpt>
      <trkpt lat="49.51511" lon="3.78389">
        <ele>182.1</ele>
        <time>2022-04-03T12:31:55Z</time>
      </trkpt>
      <trkpt lat="49.51533" lon="3.78468">
        <ele>181.3</ele>
        <time>2022-04-03T12:33:24Z</time>
      </trkpt>
      <trkpt lat="49.51546" lon="3.78549">
        <ele>247.68</ele>
        <time>2022-04-03T12:34:34Z</time>
      </trkpt>
      <trkpt lat="49.51569" lon="3.78622">
        <ele>239.51</ele>
        <time>2022-04-03T12:35:24Z</time>
      </trkpt>
      <trkpt lat="49.51617" lon="3.78661">
        <ele>231.33</ele>
        <time>2022-04-03T12:36:08Z</time>
      </trkpt>
      <trkpt lat="49.51665" lon="3.78702">
        <ele>222.68</ele>
        <time>2022-04-03T12:37:07Z</time>
      </trkpt>
      <trkpt lat="49.51718" lon="3.78731">
        <ele>215.47</ele>
        <time>2022-04-03T12:37:57Z</time>
      </trkpt>
      <trkpt lat="49.51765" lon="3.78737">
        <ele>140.9</ele>
      </trkpt>
      <trkpt lat="49.51781" lon="3.78643">
        <ele>201.53</ele>
        <time>2022-04-03T12:40:05Z</time>
      </trkpt>
      <trkpt lat="49.51773" lon="3.78597">
        <ele>138.5</ele>
      </trkpt>
      <trkpt lat="49.51805" lon="3.78543">
        <ele>203.46</ele>
        <time>2022-04-03T12:41:03Z</time>
      </trkpt>
      <trkpt lat="49.51845" lon="3.78449">
        <ele>201.53</ele>
        <time>2022-04-03T12:42:04Z</time>
      </trkpt>
      <trkpt lat="49.51881" lon="3.78366">
        <ele>205.38</ele>
        <time>2022-04-03T12:43:04Z</time>
      </trkpt>
      <trkpt lat="49.51914" lon="3.7837">
        <ele>207.3</ele>
        <time>2022-04-03T12:43:55Z</time>
      </trkpt>
      <trkpt lat="49.51941" lon="3.78444">
        <ele>205.86</ele>
        <time>2022-04-03T12:46:21Z</time>
      </trkpt>
      <trkpt lat="49.51962" lon="3.78498">
        <ele>203.46</ele>
        <time>2022-04-03T12:46:59Z</time>
      </trkpt>
      <trkpt lat="49.52014" lon="3.785">
        <ele>206.34</ele>
        <time>2022-04-03T12:47:53Z</time>
      </trkpt>
      <trkpt lat="49.52058" lon="3.78506">
        <ele>207.78</ele>
        <time>2022-04-03T12:48:39Z</time>
      </trkpt>
      <trkpt lat="49.52095" lon="3.78505">
        <ele>207.78</ele>
        <time>2022-04-03T12:49:23Z</time>
      </trkpt>
      <trkpt lat="49.52121" lon="3.78437">
        <ele>215.47</ele>
        <time>2022-04-03T12:50:38Z</time>
      </trkpt>
      <trkpt lat="49.52142" lon="3.78393">
        <ele>224.61</ele>
        <time>2022-04-03T12:51:39Z</time>
      </trkpt>
      <trkpt lat="49.5217" lon="3.78353">
        <ele>232.78</ele>
        <time>2022-04-03T12:52:25Z</time>
      </trkpt>
      <trkpt lat="49.5221" lon="3.78315">
        <ele>250.08</ele>
        <time>2022-04-03T12:55:50Z</time>
      </trkpt>
      <trkpt lat="49.52274" lon="3.7836">
        <ele>251.04</ele>
        <time>2022-04-03T12:57:13Z</time>
      </trkpt>
      <trkpt lat="49.52309" lon="3.78414">
        <ele>252.48</ele>
        <time>2022-04-03T13:00:01Z</time>
      </trkpt>
      <trkpt lat="49.52369" lon="3.78491">
        <ele>255.37</ele>
        <time>2022-04-03T13:01:12Z</time>
      </trkpt>
      <trkpt lat="49.52435" lon="3.78569">
        <ele>258.73</ele>
        <time>2022-04-03T13:02:29Z</time>
      </trkpt>
      <trkpt lat="49.52506" lon="3.78625">
        <ele>260.17</ele>
        <time>2022-04-03T13:03:38Z</time>
      </trkpt>
      <trkpt lat="49.52565" lon="3.78655">
        <ele>256.33</ele>
        <time>2022-04-03T13:04:54Z</time>
      </trkpt>
      <trkpt lat="49.52554" lon="3.78565">
        <ele>255.85</ele>
        <time>2022-04-03T13:06:00Z</time>
      </trkpt>
      <trkpt lat="49.52554" lon="3.78454">
        <ele>258.25</ele>
        <time>2022-04-03T13:07:01Z</time>
      </trkpt>
      <trkpt lat="49.52561" lon="3.78353">
        <ele>260.65</ele>
        <time>2022-04-03T13:07:56Z</time>
      </trkpt>
      <trkpt lat="49.52571" lon="3.78283">
        <ele>262.58</ele>
        <time>2022-04-03T13:08:40Z</time>
      </trkpt>
      <trkpt lat="49.52587" lon="3.78239">
        <ele>261.62</ele>
        <time>2022-04-03T13:09:11Z</time>
      </trkpt>
      <trkpt lat="49.52628" lon="3.78156">
        <ele>261.62</ele>
        <time>2022-04-03T13:10:09Z</time>
      </trkpt>
      <trkpt lat="49.52667" lon="3.78086">
        <ele>260.17</ele>
        <time>2022-04-03T13:10:58Z</time>
      </trkpt>
      <trkpt lat="49.52677" lon="3.78028">
        <ele>260.17</ele>
        <time>2022-04-03T13:11:36Z</time>
      </trkpt>
      <trkpt lat="49.52672" lon="3.77973">
        <ele>260.17</ele>
        <time>2022-04-03T13:12:11Z</time>
      </trkpt>
      <trkpt lat="49.52662" lon="3.77844">
        <ele>262.58</ele>
        <time>2022-04-03T13:13:20Z</time>
      </trkpt>
      <trkpt lat="49.52655" lon="3.77765">
        <ele>261.14</ele>
        <time>2022-04-03T13:14:02Z</time>
      </trkpt>
      <trkpt lat="49.5265" lon="3.77669">
        <ele>259.69</ele>
        <time>2022-04-03T13:14:57Z</time>
      </trkpt>
      <trkpt lat="49.52643" lon="3.77587">
        <ele>258.73</ele>
        <time>2022-04-03T13:15:45Z</time>
      </trkpt>
      <trkpt lat="49.52613" lon="3.77488">
        <ele>259.69</ele>
        <time>2022-04-03T13:16:41Z</time>
      </trkpt>
      <trkpt lat="49.5258" lon="3.77413">
        <ele>259.21</ele>
        <time>2022-04-03T13:17:33Z</time>
      </trkpt>
      <trkpt lat="49.52632" lon="3.77318">
        <ele>260.17</ele>
        <time>2022-04-03T13:18:40Z</time>
      </trkpt>
      <trkpt lat="49.52696" lon="3.77225">
        <ele>262.1</ele>
        <time>2022-04-03T13:19:53Z</time>
      </trkpt>
      <trkpt lat="49.52742" lon="3.77163">
        <ele>260.65</ele>
        <time>2022-04-03T13:20:41Z</time>
      </trkpt>
      <trkpt lat="49.52785" lon="3.77224">
        <ele>261.14</ele>
        <time>2022-04-03T13:21:26Z</time>
      </trkpt>
      <trkpt lat="49.52809" lon="3.77269">
        <ele>262.58</ele>
        <time>2022-04-03T13:22:05Z</time>
      </trkpt>
      <trkpt lat="49.52849" lon="3.77307">
        <ele>262.58</ele>
        <time>2022-04-03T13:22:37Z</time>
      </trkpt>
      <trkpt lat="49.52882" lon="3.77364">
        <ele>263.54</ele>
        <time>2022-04-03T13:23:26Z</time>
      </trkpt>
      <trkpt lat="49.52929" lon="3.7742">
        <ele>264.02</ele>
        <time>2022-04-03T13:24:14Z</time>
      </trkpt>
      <trkpt lat="49.52967" lon="3.77476">
        <ele>264.02</ele>
        <time>2022-04-03T13:25:00Z</time>
      </trkpt>
      <trkpt lat="49.52998" lon="3.77531">
        <ele>264.02</ele>
        <time>2022-04-03T13:25:41Z</time>
      </trkpt>
      <trkpt lat="49.53031" lon="3.77591">
        <ele>263.06</ele>
        <time>2022-04-03T13:26:20Z</time>
      </trkpt>
      <trkpt lat="49.53081" lon="3.77674">
        <ele>262.58</ele>
        <time>2022-04-03T13:27:21Z</time>
      </trkpt>
      <trkpt lat="49.53096" lon="3.77701">
        <ele>263.06</ele>
        <time>2022-04-03T13:27:55Z</time>
      </trkpt>
      <trkpt lat="49.5315" lon="3.77759">
        <ele>264.02</ele>
        <time>2022-04-03T13:28:48Z</time>
      </trkpt>
      <trkpt lat="49.53204" lon="3.77812">
        <ele>264.98</ele>
        <time>2022-04-03T13:29:43Z</time>
      </trkpt>
      <trkpt lat="49.53257" lon="3.77863">
        <ele>264.98</ele>
        <time>2022-04-03T13:30:32Z</time>
      </trkpt>
      <trkpt lat="49.5329" lon="3.77888">
        <ele>265.46</ele>
        <time>2022-04-03T13:31:06Z</time>
      </trkpt>
      <trkpt lat="49.53336" lon="3.77941">
        <ele>266.42</ele>
        <time>2022-04-03T13:31:55Z</time>
      </trkpt>
      <trkpt lat="49.53363" lon="3.77977">
        <ele>267.38</ele>
        <time>2022-04-03T13:32:25Z</time>
      </trkpt>
      <trkpt lat="49.53394" lon="3.78008">
        <ele>267.86</ele>
        <time>2022-04-03T13:33:12Z</time>
      </trkpt>
      <trkpt lat="49.53387" lon="3.78017">
        <ele>267.86</ele>
        <time>2022-04-03T13:34:47Z</time>
      </trkpt>
      <trkpt lat="49.53382" lon="3.78022">
        <ele>267.86</ele>
        <time>2022-04-03T13:36:09Z</time>
      </trkpt>
      <trkpt lat="49.53389" lon="3.78016">
        <ele>268.35</ele>
        <time>2022-04-03T13:39:06Z</time>
      </trkpt>
      <trkpt lat="49.53407" lon="3.77992">
        <ele>267.38</ele>
        <time>2022-04-03T13:39:36Z</time>
      </trkpt>
      <trkpt lat="49.53447" lon="3.77897">
        <ele>266.42</ele>
        <time>2022-04-03T13:40:37Z</time>
      </trkpt>
      <trkpt lat="49.53443" lon="3.77864">
        <ele>264.98</ele>
        <time>2022-04-03T13:41:01Z</time>
      </trkpt>
      <trkpt lat="49.53488" lon="3.77812">
        <ele>266.42</ele>
        <time>2022-04-03T13:41:47Z</time>
      </trkpt>
      <trkpt lat="49.53502" lon="3.77754">
        <ele>266.9</ele>
        <time>2022-04-03T13:42:28Z</time>
      </trkpt>
      <trkpt lat="49.53524" lon="3.77692">
        <ele>266.42</ele>
        <time>2022-04-03T13:43:10Z</time>
      </trkpt>
      <trkpt lat="49.53533" lon="3.77626">
        <ele>265.94</ele>
        <time>2022-04-03T13:43:50Z</time>
      </trkpt>
      <trkpt lat="49.53551" lon="3.77508">
        <ele>265.94</ele>
        <time>2022-04-03T13:44:53Z</time>
      </trkpt>
      <trkpt lat="49.53571" lon="3.77432">
        <ele>266.42</ele>
        <time>2022-04-03T13:45:45Z</time>
      </trkpt>
      <trkpt lat="49.53589" lon="3.77325">
        <ele>191.6</ele>
        <time>2022-04-03T13:46:43Z</time>
      </trkpt>
      <trkpt lat="49.53625" lon="3.77187">
        <ele>190.7</ele>
        <time>2022-04-03T13:47:26Z</time>
      </trkpt>
      <trkpt lat="49.53555" lon="3.77266">
        <ele>250.08</ele>
        <time>2022-04-03T13:48:11Z</time>
      </trkpt>
      <trkpt lat="49.53518" lon="3.7731">
        <ele>241.91</ele>
        <time>2022-04-03T13:49:02Z</time>
      </trkpt>
      <trkpt lat="49.53482" lon="3.77344">
        <ele>233.74</ele>
        <time>2022-04-03T13:50:10Z</time>
      </trkpt>
      <trkpt lat="49.53438" lon="3.77345">
        <ele>224.61</ele>
        <time>2022-04-03T13:51:15Z</time>
      </trkpt>
      <trkpt lat="49.53392" lon="3.77365">
        <ele>217.4</ele>
        <time>2022-04-03T13:52:06Z</time>
      </trkpt>
      <trkpt lat="49.53337" lon="3.7736">
        <ele>209.7</ele>
        <time>2022-04-03T13:53:09Z</time>
      </trkpt>
      <trkpt lat="49.533" lon="3.77345">
        <ele>205.86</ele>
        <time>2022-04-03T13:53:42Z</time>
      </trkpt>
      <trkpt lat="49.53289" lon="3.77283">
        <ele>201.53</ele>
        <time>2022-04-03T13:54:29Z</time>
      </trkpt>
      <trkpt lat="49.53268" lon="3.77206">
        <ele>198.65</ele>
        <time>2022-04-03T13:55:19Z</time>
      </trkpt>
      <trkpt lat="49.53255" lon="3.77163">
        <ele>196.73</ele>
        <time>2022-04-03T13:55:45Z</time>
      </trkpt>
      <trkpt lat="49.53247" lon="3.771">
        <ele>192.88</ele>
        <time>2022-04-03T13:56:27Z</time>
      </trkpt>
      <trkpt lat="49.53253" lon="3.77005">
        <ele>189.52</ele>
        <time>2022-04-03T13:57:24Z</time>
      </trkpt>
      <trkpt lat="49.53252" lon="3.76934">
        <ele>188.08</ele>
        <time>2022-04-03T13:58:15Z</time>
      </trkpt>
      <trkpt lat="49.5326" lon="3.76828">
        <ele>185.67</ele>
        <time>2022-04-03T13:59:17Z</time>
      </trkpt>
      <trkpt lat="49.53264" lon="3.76735">
        <ele>183.27</ele>
        <time>2022-04-03T14:00:06Z</time>
      </trkpt>
      <trkpt lat="49.53243" lon="3.76646">
        <ele>181.35</ele>
        <time>2022-04-03T14:01:02Z</time>
      </trkpt>
      <trkpt lat="49.53229" lon="3.76539">
        <ele>180.87</ele>
        <time>2022-04-03T14:01:59Z</time>
      </trkpt>
      <trkpt lat="49.53202" lon="3.76447">
        <ele>178.94</ele>
        <time>2022-04-03T14:02:55Z</time>
      </trkpt>
      <trkpt lat="49.53187" lon="3.76382">
        <ele>178.46</ele>
        <time>2022-04-03T14:03:46Z</time>
      </trkpt>
      <trkpt lat="49.53178" lon="3.76301">
        <ele>177.02</ele>
        <time>2022-04-03T14:04:36Z</time>
      </trkpt>
      <trkpt lat="49.5317" lon="3.76232">
        <ele>176.06</ele>
        <time>2022-04-03T14:05:08Z</time>
      </trkpt>
      <trkpt lat="49.53156" lon="3.7614">
        <ele>174.14</ele>
        <time>2022-04-03T14:05:52Z</time>
      </trkpt>
      <trkpt lat="49.53134" lon="3.76078">
        <ele>173.66</ele>
        <time>2022-04-03T14:06:25Z</time>
      </trkpt>
      <trkpt lat="49.53084" lon="3.76125">
        <ele>174.62</ele>
        <time>2022-04-03T14:07:15Z</time>
      </trkpt>
      <trkpt lat="49.53075" lon="3.7614">
        <ele>175.1</ele>
        <time>2022-04-03T14:08:20Z</time>
      </trkpt>
      <trkpt lat="49.53054" lon="3.76168">
        <ele>174.62</ele>
        <time>2022-04-03T14:11:34Z</time>
      </trkpt>
      <trkpt lat="49.53006" lon="3.76209">
        <ele>175.1</ele>
        <time>2022-04-03T14:12:14Z</time>
      </trkpt>
      <trkpt lat="49.52938" lon="3.76176">
        <ele>174.62</ele>
        <time>2022-04-03T14:13:03Z</time>
      </trkpt>
      <trkpt lat="49.52879" lon="3.761">
        <ele>175.58</ele>
        <time>2022-04-03T14:14:05Z</time>
      </trkpt>
      <trkpt lat="49.52823" lon="3.76113">
        <ele>176.06</ele>
        <time>2022-04-03T14:14:51Z</time>
      </trkpt>
      <trkpt lat="49.52786" lon="3.76141">
        <ele>176.54</ele>
        <time>2022-04-03T14:15:22Z</time>
      </trkpt>
      <trkpt lat="49.52741" lon="3.76171">
        <ele>176.54</ele>
        <time>2022-04-03T14:16:07Z</time>
      </trkpt>
      <trkpt lat="49.52666" lon="3.76172">
        <ele>177.98</ele>
        <time>2022-04-03T14:17:00Z</time>
      </trkpt>
      <trkpt lat="49.52623" lon="3.76156">
        <ele>178.46</ele>
        <time>2022-04-03T14:17:34Z</time>
      </trkpt>
      <trkpt lat="49.52572" lon="3.76145">
        <ele>178.46</ele>
        <time>2022-04-03T14:18:11Z</time>
      </trkpt>
      <trkpt lat="49.525" lon="3.76122">
        <ele>178.94</ele>
        <time>2022-04-03T14:19:05Z</time>
      </trkpt>
      <trkpt lat="49.52442" lon="3.7613">
        <ele>177.5</ele>
        <time>2022-04-03T14:19:51Z</time>
      </trkpt>
      <trkpt lat="49.52369" lon="3.76178">
        <ele>177.98</ele>
        <time>2022-04-03T14:20:48Z</time>
      </trkpt>
      <trkpt lat="49.52303" lon="3.76187">
        <ele>177.98</ele>
        <time>2022-04-03T14:21:36Z</time>
      </trkpt>
      <trkpt lat="49.5223" lon="3.76179">
        <ele>178.94</ele>
        <time>2022-04-03T14:22:33Z</time>
      </trkpt>
      <trkpt lat="49.52211" lon="3.76134">
        <ele>179.9</ele>
        <time>2022-04-03T14:23:13Z</time>
      </trkpt>
      <trkpt lat="49.52196" lon="3.76073">
        <ele>179.42</ele>
        <time>2022-04-03T14:23:51Z</time>
      </trkpt>
      <trkpt lat="49.52176" lon="3.76015">
        <ele>179.9</ele>
        <time>2022-04-03T14:24:25Z</time>
      </trkpt>
      <trkpt lat="49.52154" lon="3.75935">
        <ele>179.9</ele>
        <time>2022-04-03T14:25:05Z</time>
      </trkpt>
      <trkpt lat="49.52128" lon="3.75852">
        <ele>180.38</ele>
        <time>2022-04-03T14:25:54Z</time>
      </trkpt>
      <trkpt lat="49.52095" lon="3.75764">
        <ele>180.87</ele>
        <time>2022-04-03T14:26:46Z</time>
      </trkpt>
      <trkpt lat="49.52072" lon="3.75689">
        <ele>181.83</ele>
        <time>2022-04-03T14:27:28Z</time>
      </trkpt>
      <trkpt lat="49.52055" lon="3.75598">
        <ele>181.83</ele>
        <time>2022-04-03T14:28:15Z</time>
      </trkpt>
      <trkpt lat="49.52039" lon="3.75514">
        <ele>182.79</ele>
        <time>2022-04-03T14:28:57Z</time>
      </trkpt>
      <trkpt lat="49.52031" lon="3.75462">
        <ele>183.27</ele>
        <time>2022-04-03T14:29:21Z</time>
      </trkpt>
      <trkpt lat="49.52029" lon="3.75422">
        <ele>110</ele>
        <time>2022-04-03T14:39:23Z</time>
      </trkpt>
    </trkseg>
  </trk>
</gpx>